EW4964 Weather Reports


Display with metric or nautical units.
time (UTC)temp
F
wind
direction
speed
MPH
gust
MPH
rain 1hr
in
rain 24hr
in
rain mn
in
humidity
%
barometer
mb
20260504033005 49 166 7.0 11.0 0.00 0.00 0.00 34 1017.7
20260504031505 49 170 7.0 12.0 0.00 0.00 0.00 34 1018.0
20260504024505 49 270 7.0 11.0 0.00 0.00 0.00 33 1018.1
20260504023005 50 245 7.0 13.0 0.00 0.00 0.00 33 1017.9
20260504021505 50 220 6.0 11.0 0.00 0.00 0.00 33 1017.8
20260504014504 50 225 8.0 15.0 0.00 0.00 0.00 32 1018.2
20260504013005 50 204 7.0 11.0 0.00 0.00 0.00 32 1017.9
20260504011504 51 197 7.0 12.0 0.00 0.00 0.00 32 1018.1
20260504010005 51 225 7.0 16.0 0.00 0.00 0.00 32 1018.4
20260504004505 51 226 7.0 15.0 0.00 0.00 0.00 32 1018.2
20260504001504 51 218 8.0 14.0 0.00 0.00 0.00 31 1018.2
20260503234504 52 164 8.0 15.0 0.00 0.00 0.00 31 1018.3
20260503233004 52 248 8.0 17.0 0.00 0.00 0.00 31 1018.5
20260503231508 52 162 8.0 13.0 0.00 0.00 0.00 31 1018.6
20260503230007 53 188 7.0 15.0 0.00 0.00 0.00 31 1018.8
20260503224508 53 227 8.0 16.0 0.00 0.00 0.00 29 1018.8
20260503223008 53 202 8.0 15.0 0.00 0.00 0.00 29 1018.6
20260503221507 53 216 8.0 12.0 0.00 0.00 0.00 29 1018.8
20260503220010 53 225 8.0 11.0 0.00 0.00 0.00 29 1018.9
20260503214507 54 229 8.0 15.0 0.00 0.00 0.00 29 1019.0
20260503213007 54 270 8.0 15.0 0.00 0.00 0.00 29 1019.2
20260503211507 55 169 9.0 15.0 0.00 0.00 0.00 29 1019.0
20260503210008 55 238 8.0 15.0 0.00 0.00 0.00 29 1019.1
20260503204508 55 179 8.0 13.0 0.00 0.00 0.00 31 1019.0
20260503203007 55 220 7.0 12.0 0.00 0.00 0.00 31 1019.0
20260503201508 56 202 7.0 11.0 0.00 0.00 0.00 31 1019.2
20260503200008 56 201 7.0 13.0 0.00 0.00 0.00 31 1019.3
20260503194508 56 225 6.0 10.0 0.00 0.00 0.00 31 1019.4
20260503193007 56 238 7.0 14.0 0.00 0.00 0.00 31 1019.4
20260503191507 57 225 6.0 11.0 0.00 0.00 0.00 31 1019.2
20260503190007 58 212 5.0 9.0 0.00 0.00 0.00 29 1019.2
20260503184507 58 223 7.0 15.0 0.00 0.00 0.00 29 1019.2
20260503183007 59 210 7.0 12.0 0.00 0.00 0.00 29 1019.0
20260503181507 60 195 6.0 11.0 0.00 0.00 0.00 27 1019.1
20260503180007 60 252 6.0 11.0 0.00 0.00 0.00 27 1018.9
20260503174507 61 216 7.0 11.0 0.00 0.00 0.00 27 1019.1
20260503173007 62 230 8.0 12.0 0.00 0.00 0.00 23 1019.0
20260503171508 64 261 7.0 15.0 0.00 0.00 0.00 23 1019.0
20260503081505 59 230 6.0 13.0 0.00 0.00 0.00 31 1022.4
20260503071506 55 268 5.0 9.0 0.00 0.00 0.00 31 1022.3
20260503054505 51 193 6.0 11.0 0.00 0.00 0.00 34 1021.5
20260503051506 49 181 6.0 11.0 0.00 0.00 0.00 34 1021.5
20260503050007 49 225 6.0 10.0 0.00 0.00 0.00 34 1021.5
20260503043006 48 177 6.0 13.0 0.00 0.00 0.00 33 1021.7
20260503041505 48 192 5.0 9.0 0.00 0.00 0.00 33 1021.6
20260503040005 48 183 5.0 10.0 0.00 0.00 0.00 32 1021.6
20260503034505 49 225 4.0 8.0 0.00 0.00 0.00 32 1021.8